When you browse on this site, cookies collect data to enhance your experience and personalize the content and advertising you see.
Visit our Privacy Policy to learn more. By continuing to use the site, you agree to this use of cookies and data.
  • en France
  • Liste des pays
  • À 7 jours
  • Température de l'eau
  • Carte météo
  • Widgets météo
  • user-avatar
    Se connecter

    Météo par heure à Fier

    Ce jour, 2 Juin, Mardi

    Heure Température Précipitation Vent Pression Humidité
    00:00 +15°C° 0 mm 1 m/s 758 mmHg 80%
    01:00 +14°C° 0 mm 2 m/s 757 mmHg 81%
    02:00 +14°C° 0 mm 2 m/s 757 mmHg 81%
    03:00 +14°C° 0 mm 2 m/s 757 mmHg 81%
    04:00 +14°C° 0 mm 2 m/s 757 mmHg 81%
    05:00 +15°C° 0 mm 2 m/s 757 mmHg 75%
    06:00 +18°C° 0 mm 1 m/s 757 mmHg 69%
    07:00 +20°C° 0 mm 1 m/s 757 mmHg 63%
    08:00 +21°C° 0 mm 1 m/s 757 mmHg 59%
    09:00 +21°C° 0 mm 2 m/s 757 mmHg 54%
    10:00 +23°C° 0 mm 2 m/s 757 mmHg 49%
    11:00 +24°C° 0 mm 3 m/s 756 mmHg 49%
    12:00 +23°C° 0 mm 4 m/s 756 mmHg 49%
    13:00 +23°C° 0 mm 5 m/s 756 mmHg 50%
    14:00 +23°C° 0 mm 5 m/s 756 mmHg 51%
    15:00 +22°C° 0 mm 4 m/s 755 mmHg 53%
    16:00 +22°C° 0 mm 4 m/s 755 mmHg 55%
    17:00 +21°C° 0 mm 3 m/s 755 mmHg 62%
    18:00 +19°C° 0 mm 3 m/s 755 mmHg 70%
    19:00 +18°C° 0 mm 2 m/s 755 mmHg 78%
    20:00 +17°C° 0 mm 2 m/s 755 mmHg 80%
    21:00 +18°C° 0 mm 1 m/s 756 mmHg 82%
    22:00 +16°C° 0 mm 1 m/s 756 mmHg 84%
    23:00 +16°C° 0 mm 1 m/s 755 mmHg 83%

    Demain, 3 Juin, Mercredi

    Heure Température Précipitation Vent Pression Humidité
    00:00 +16°C° 0 mm 1 m/s 755 mmHg 81%
    01:00 +15°C° 0 mm 2 m/s 755 mmHg 79%
    02:00 +15°C° 0 mm 2 m/s 755 mmHg 77%
    03:00 +15°C° 0 mm 2 m/s 755 mmHg 75%
    04:00 +15°C° 0 mm 2 m/s 755 mmHg 73%
    05:00 +17°C° 0.1 mm 2 m/s 755 mmHg 69%
    06:00 +18°C° 0.1 mm 2 m/s 755 mmHg 66%
    07:00 +20°C° 0.1 mm 2 m/s 755 mmHg 63%
    08:00 +21°C° 0.1 mm 2 m/s 755 mmHg 59%
    09:00 +24°C° 0.1 mm 3 m/s 755 mmHg 55%
    10:00 +25°C° 0.1 mm 3 m/s 755 mmHg 50%
    11:00 +25°C° 0.1 mm 3 m/s 755 mmHg 50%
    12:00 +25°C° 0.1 mm 4 m/s 755 mmHg 50%
    13:00 +26°C° 0.1 mm 5 m/s 754 mmHg 50%
    14:00 +25°C° 0 mm 4 m/s 754 mmHg 50%
    15:00 +25°C° 0 mm 4 m/s 755 mmHg 50%
    16:00 +24°C° 0 mm 3 m/s 755 mmHg 50%
    17:00 +23°C° 0 mm 2 m/s 755 mmHg 57%
    18:00 +20°C° 0 mm 2 m/s 755 mmHg 65%
    19:00 +20°C° 0 mm 1 m/s 755 mmHg 73%
    20:00 +19°C° 0 mm 1 m/s 755 mmHg 75%
    21:00 +18°C° 0 mm 1 m/s 756 mmHg 76%
    22:00 +18°C° 0 mm 1 m/s 756 mmHg 78%
    23:00 +16°C° 0 mm 2 m/s 756 mmHg 74%

    Après-demain, 4 Juin, Jeudi

    Heure Température Précipitation Vent Pression Humidité
    00:00 +16°C° 0 mm 2 m/s 756 mmHg 70%
    01:00 +16°C° 0 mm 3 m/s 756 mmHg 67%
    02:00 +16°C° 0 mm 3 m/s 756 mmHg 65%
    03:00 +16°C° 0 mm 3 m/s 756 mmHg 63%
    04:00 +16°C° 0 mm 3 m/s 756 mmHg 61%
    05:00 +18°C° 0 mm 3 m/s 756 mmHg 58%
    06:00 +20°C° 0 mm 3 m/s 756 mmHg 56%
    07:00 +21°C° 0 mm 3 m/s 756 mmHg 53%
    08:00 +23°C° 0 mm 4 m/s 756 mmHg 49%
    09:00 +26°C° 0 mm 4 m/s 756 mmHg 46%
    10:00 +27°C° 0 mm 4 m/s 757 mmHg 42%
    11:00 +28°C° 0 mm 6 m/s 757 mmHg 41%
    12:00 +28°C° 0 mm 7 m/s 756 mmHg 41%
    13:00 +28°C° 0 mm 8 m/s 756 mmHg 40%
    14:00 +28°C° 0 mm 8 m/s 756 mmHg 41%
    15:00 +28°C° 0 mm 8 m/s 757 mmHg 43%
    16:00 +27°C° 0 mm 8 m/s 757 mmHg 44%
    17:00 +24°C° 0 mm 8 m/s 757 mmHg 52%
    18:00 +23°C° 0 mm 7 m/s 757 mmHg 59%
    19:00 +21°C° 0 mm 7 m/s 757 mmHg 67%
    20:00 +20°C° 0 mm 7 m/s 757 mmHg 68%
    21:00 +19°C° 0 mm 6 m/s 757 mmHg 69%
    22:00 +19°C° 0 mm 5 m/s 757 mmHg 70%
    23:00 +17°C° 0 mm 5 m/s 757 mmHg 69%

    5 Juin, Vendredi

    Heure Température Précipitation Vent Pression Humidité
    00:00 +17°C° 0 mm 5 m/s 757 mmHg 68%
    01:00 +16°C° 0 mm 5 m/s 757 mmHg 67%
    02:00 +17°C° 0 mm 5 m/s 757 mmHg 65%
    03:00 +18°C° 0 mm 4 m/s 756 mmHg 64%
    04:00 +18°C° 0 mm 4 m/s 756 mmHg 62%
    05:00 +19°C° 0 mm 4 m/s 756 mmHg 60%
    06:00 +20°C° 0 mm 4 m/s 756 mmHg 57%
    07:00 +22°C° 0 mm 4 m/s 757 mmHg 54%
    08:00 +22°C° 0.2 mm 5 m/s 757 mmHg 55%
    09:00 +21°C° 0.2 mm 5 m/s 756 mmHg 57%
    10:00 +21°C° 0.2 mm 5 m/s 756 mmHg 58%
    11:00 +21°C° 0.3 mm 6 m/s 756 mmHg 60%
    12:00 +21°C° 0.3 mm 6 m/s 756 mmHg 62%
    13:00 +21°C° 0.3 mm 7 m/s 755 mmHg 64%
    14:00 +21°C° 0.3 mm 6 m/s 755 mmHg 67%
    15:00 +20°C° 0.3 mm 4 m/s 754 mmHg 70%
    16:00 +20°C° 0.3 mm 2 m/s 754 mmHg 73%
    17:00 +19°C° 0.1 mm 2 m/s 754 mmHg 76%
    18:00 +19°C° 0.1 mm 2 m/s 754 mmHg 79%
    19:00 +19°C° 0.1 mm 1 m/s 754 mmHg 82%
    20:00 +18°C° 1.8 mm 2 m/s 754 mmHg 85%
    21:00 +17°C° 1.8 mm 3 m/s 754 mmHg 89%
    22:00 +16°C° 1.8 mm 5 m/s 754 mmHg 92%
    23:00 +17°C° 2.2 mm 4 m/s 754 mmHg 91%

    6 Juin, Samedi

    Heure Température Précipitation Vent Pression Humidité
    00:00 +17°C° 2.2 mm 4 m/s 753 mmHg 91%
    01:00 +17°C° 2.2 mm 3 m/s 753 mmHg 90%
    02:00 +17°C° 0.9 mm 3 m/s 753 mmHg 90%
    03:00 +17°C° 0.9 mm 3 m/s 753 mmHg 90%
    04:00 +17°C° 0.9 mm 3 m/s 754 mmHg 89%
    05:00 +17°C° 0.5 mm 2 m/s 754 mmHg 87%
    06:00 +18°C° 0.5 mm 2 m/s 754 mmHg 84%
    07:00 +19°C° 0.5 mm 1 m/s 755 mmHg 81%
    08:00 +20°C° 0 mm 1 m/s 755 mmHg 77%
    09:00 +21°C° 0 mm 1 m/s 756 mmHg 72%
    10:00 +22°C° 0 mm 1 m/s 756 mmHg 67%
    11:00 +23°C° 0 mm 2 m/s 756 mmHg 65%
    12:00 +24°C° 0 mm 3 m/s 756 mmHg 63%
    13:00 +25°C° 0 mm 4 m/s 756 mmHg 60%
    14:00 +25°C° 0 mm 3 m/s 756 mmHg 62%
    15:00 +25°C° 0 mm 3 m/s 756 mmHg 63%
    16:00 +24°C° 0 mm 3 m/s 755 mmHg 64%
    17:00 +23°C° 0 mm 2 m/s 756 mmHg 70%
    18:00 +21°C° 0 mm 2 m/s 756 mmHg 75%
    19:00 +21°C° 0 mm 1 m/s 756 mmHg 80%
    20:00 +20°C° 0 mm 1 m/s 757 mmHg 81%
    21:00 +18°C° 0 mm 0 m/s 757 mmHg 83%
    22:00 +17°C° 0 mm 0 m/s 758 mmHg 84%
    23:00 +17°C° 0 mm 0 m/s 758 mmHg 85%

    7 Juin, Dimanche

    Heure Température Précipitation Vent Pression Humidité
    00:00 +17°C° 0 mm 0 m/s 758 mmHg 86%
    01:00 +18°C° 0 mm 1 m/s 758 mmHg 86%
    02:00 +18°C° 0 mm 1 m/s 758 mmHg 87%
    03:00 +18°C° 0 mm 1 m/s 758 mmHg 87%
    04:00 +17°C° 0 mm 2 m/s 758 mmHg 87%
    05:00 +19°C° 0 mm 2 m/s 758 mmHg 80%
    06:00 +20°C° 0 mm 2 m/s 758 mmHg 74%
    07:00 +23°C° 0 mm 2 m/s 758 mmHg 67%
    08:00 +24°C° 0 mm 2 m/s 758 mmHg 63%
    09:00 +25°C° 0 mm 2 m/s 758 mmHg 58%
    10:00 +27°C° 0 mm 3 m/s 758 mmHg 53%
    11:00 +27°C° 0 mm 3 m/s 758 mmHg 53%
    12:00 +27°C° 0 mm 3 m/s 758 mmHg 54%
    13:00 +27°C° 0 mm 4 m/s 758 mmHg 54%
    14:00 +27°C° 0 mm 4 m/s 758 mmHg 54%
    15:00 +27°C° 0 mm 4 m/s 758 mmHg 55%
    16:00 +27°C° 0 mm 3 m/s 758 mmHg 56%
    17:00 +25°C° 0 mm 3 m/s 758 mmHg 62%
    18:00 +24°C° 0 mm 3 m/s 758 mmHg 68%
    19:00 +21°C° 0 mm 2 m/s 758 mmHg 74%
    20:00 +21°C° 0 mm 2 m/s 758 mmHg 76%
    21:00 +20°C° 0 mm 2 m/s 759 mmHg 77%
    22:00 +20°C° 0 mm 2 m/s 759 mmHg 78%
    23:00 +20°C° 0 mm 2 m/s 759 mmHg 77%
    Voir plus